,,PressureMeas_1m,,PRMeasQMR101_1,,RHStat155_1m_1,,SRMeasQMS101R_1m,,TAStat155_1m_1,,GenWind_1,,GenWind_1,
2017-07-02, 00:00:06,VALID,917.815,VALID,0.0,VALID,96.895,VALID,0.01,VALID,20.949,VALID,126.0,VALID,0.0,
2017-07-02, 00:01:06,VALID,917.799,VALID,0.0,VALID,96.925,VALID,0.005,VALID,20.976,VALID,126.0,VALID,0.0,
2017-07-02, 00:02:06,VALID,917.792,VALID,0.0,VALID,96.877,VALID,0.012,VALID,21.016,VALID,126.0,VALID,0.0,
2017-07-02, 00:03:06,VALID,917.786,VALID,0.0,VALID,96.731,VALID,-0.007,VALID,21.053,VALID,126.0,VALID,0.0,
2017-07-02, 00:04:06,VALID,917.795,VALID,0.0,VALID,96.68,VALID,0.003,VALID,21.093,VALID,126.0,VALID,0.0,
2017-07-02, 00:05:06,VALID,917.808,VALID,0.0,VALID,96.722,VALID,0.013,VALID,21.144,VALID,136.0,VALID,0.0,
2017-07-02, 00:06:06,VALID,917.821,VALID,0.0,VALID,96.418,VALID,0.01,VALID,21.134,VALID,159.0,VALID,0.0,
2017-07-02, 00:07:06,VALID,917.823,VALID,0.0,VALID,96.131,VALID,0.001,VALID,21.087,VALID,130.0,VALID,0.0,
2017-07-02, 00:08:06,VALID,917.823,VALID,0.0,VALID,95.975,VALID,0.006,VALID,21.043,VALID,113.0,VALID,0.0,
2017-07-02, 00:09:06,VALID,917.827,VALID,0.0,VALID,96.08,VALID,-0.0,VALID,21.019,VALID,108.0,VALID,0.0,
2017-07-02, 00:10:06,VALID,917.817,VALID,0.0,VALID,96.137,VALID,0.004,VALID,21.01,VALID,106.0,VALID,0.0,
2017-07-02, 00:11:06,VALID,917.823,VALID,0.0,VALID,96.096,VALID,-0.012,VALID,21.004,VALID,102.0,VALID,0.0,
2017-07-02, 00:12:06,VALID,917.829,VALID,0.0,VALID,96.031,VALID,-0.005,VALID,21.004,VALID,110.0,VALID,0.0,
2017-07-02, 00:13:06,VALID,917.834,VALID,0.0,VALID,95.951,VALID,-0.019,VALID,20.998,VALID,116.0,VALID,0.0,
2017-07-02, 00:14:06,VALID,917.835,VALID,0.0,VALID,96.052,VALID,-0.008,VALID,21.007,VALID,117.0,VALID,0.0,
2017-07-02, 00:15:06,VALID,917.831,VALID,0.0,VALID,96.058,VALID,-0.014,VALID,21.02,VALID,117.0,VALID,0.0,
2017-07-02, 00:16:06,VALID,917.838,VALID,0.0,VALID,96.069,VALID,-0.011,VALID,21.036,VALID,117.0,VALID,0.0,
2017-07-02, 00:17:06,VALID,917.836,VALID,0.0,VALID,96.246,VALID,-0.009,VALID,21.086,VALID,117.0,VALID,0.0,
2017-07-02, 00:18:06,VALID,917.807,VALID,0.0,VALID,96.57,VALID,-0.012,VALID,21.151,VALID,117.0,VALID,0.0,
2017-07-02, 00:19:06,VALID,917.804,VALID,0.0,VALID,96.244,VALID,-0.003,VALID,21.16,VALID,117.0,VALID,0.0,
2017-07-02, 00:20:06,VALID,917.8,VALID,0.0,VALID,96.241,VALID,-0.0,VALID,21.204,VALID,117.0,VALID,0.0,
2017-07-02, 00:21:06,VALID,917.767,VALID,0.0,VALID,96.383,VALID,-0.011,VALID,21.244,VALID,117.0,VALID,0.0,
2017-07-02, 00:22:06,VALID,917.751,VALID,0.0,VALID,96.274,VALID,-0.004,VALID,21.259,VALID,117.0,VALID,0.0,
2017-07-02, 00:23:06,VALID,917.729,VALID,0.0,VALID,96.424,VALID,-0.01,VALID,21.285,VALID,117.0,VALID,0.0,
2017-07-02, 00:24:06,VALID,917.715,VALID,0.0,VALID,96.139,VALID,-0.016,VALID,21.245,VALID,117.0,VALID,0.0,
2017-07-02, 00:25:06,VALID,917.697,VALID,0.0,VALID,95.555,VALID,-0.001,VALID,21.166,VALID,117.0,VALID,0.0,
2017-07-02, 00:26:06,VALID,917.689,VALID,0.0,VALID,95.788,VALID,-0.002,VALID,21.14,VALID,91.0,VALID,0.0,
2017-07-02, 00:27:06,VALID,917.67,VALID,0.0,VALID,95.956,VALID,-0.004,VALID,21.126,VALID,29.0,VALID,0.0,
2017-07-02, 00:28:06,VALID,917.644,VALID,0.0,VALID,96.315,VALID,-0.014,VALID,21.142,VALID,14.0,VALID,0.0,
2017-07-02, 00:29:06,VALID,917.633,VALID,0.0,VALID,96.059,VALID,-0.01,VALID,21.11,VALID,22.0,VALID,0.013,
2017-07-02, 00:30:06,VALID,917.633,VALID,0.0,VALID,95.58,VALID,-0.036,VALID,21.029,VALID,39.0,VALID,0.147,
2017-07-02, 00:31:06,VALID,917.6,VALID,0.0,VALID,95.692,VALID,0.005,VALID,20.968,VALID,64.0,VALID,0.278,
2017-07-02, 00:32:06,VALID,917.579,VALID,0.0,VALID,95.514,VALID,-0.012,VALID,20.879,VALID,86.0,VALID,0.294,
2017-07-02, 00:33:06,VALID,917.538,VALID,0.0,VALID,95.721,VALID,-0.019,VALID,20.808,VALID,95.0,VALID,0.351,
2017-07-02, 00:34:06,VALID,917.515,VALID,0.0,VALID,96.062,VALID,-0.01,VALID,20.765,VALID,116.0,VALID,0.553,
2017-07-02, 00:35:06,VALID,917.491,VALID,0.0,VALID,96.422,VALID,-0.014,VALID,20.743,VALID,122.0,VALID,0.507,
2017-07-02, 00:36:06,VALID,917.463,VALID,0.0,VALID,96.472,VALID,-0.002,VALID,20.702,VALID,129.0,VALID,0.528,
2017-07-02, 00:37:06,VALID,917.445,VALID,0.0,VALID,96.635,VALID,-0.001,VALID,20.669,VALID,131.0,VALID,0.558,
2017-07-02, 00:38:06,VALID,917.432,VALID,0.0,VALID,96.817,VALID,-0.016,VALID,20.658,VALID,123.0,VALID,0.583,
2017-07-02, 00:39:06,VALID,917.405,VALID,0.0,VALID,97.013,VALID,0.009,VALID,20.658,VALID,109.0,VALID,0.557,
2017-07-02, 00:40:06,VALID,917.392,VALID,0.0,VALID,97.079,VALID,0.012,VALID,20.651,VALID,101.0,VALID,0.407,
2017-07-02, 00:41:06,VALID,917.382,VALID,0.0,VALID,97.034,VALID,-0.001,VALID,20.628,VALID,91.0,VALID,0.279,
2017-07-02, 00:42:06,VALID,917.378,VALID,0.0,VALID,97.012,VALID,0.012,VALID,20.603,VALID,88.0,VALID,0.125,
2017-07-02, 00:43:06,VALID,917.363,VALID,0.0,VALID,97.092,VALID,-0.002,VALID,20.599,VALID,91.0,VALID,0.156,
2017-07-02, 00:44:06,VALID,917.367,VALID,0.0,VALID,97.187,VALID,0.007,VALID,20.612,VALID,104.0,VALID,0.213,
2017-07-02, 00:45:06,VALID,917.364,VALID,0.0,VALID,97.25,VALID,0.008,VALID,20.62,VALID,135.0,VALID,0.373,
2017-07-02, 00:46:06,VALID,917.365,VALID,0.0,VALID,97.32,VALID,0.02,VALID,20.635,VALID,136.0,VALID,0.377,
2017-07-02, 00:47:06,VALID,917.361,VALID,0.0,VALID,97.361,VALID,0.001,VALID,20.653,VALID,131.0,VALID,0.55,
2017-07-02, 00:48:06,VALID,917.344,VALID,0.0,VALID,97.368,VALID,0.012,VALID,20.662,VALID,133.0,VALID,0.441,
2017-07-02, 00:49:06,VALID,917.338,VALID,0.0,VALID,97.3,VALID,0.003,VALID,20.662,VALID,131.0,VALID,0.631,
2017-07-02, 00:50:06,VALID,917.324,VALID,0.0,VALID,97.458,VALID,0.018,VALID,20.694,VALID,122.0,VALID,0.769,
2017-07-02, 00:51:06,VALID,917.313,VALID,0.0,VALID,97.55,VALID,0.007,VALID,20.719,VALID,123.0,VALID,0.822,
2017-07-02, 00:52:06,VALID,917.299,VALID,0.0,VALID,97.646,VALID,0.018,VALID,20.74,VALID,127.0,VALID,0.837,
2017-07-02, 00:53:06,VALID,917.283,VALID,0.0,VALID,97.639,VALID,0.013,VALID,20.725,VALID,133.0,VALID,0.907,
2017-07-02, 00:54:06,VALID,917.274,VALID,0.0,VALID,97.673,VALID,-0.011,VALID,20.708,VALID,140.0,VALID,1.023,
2017-07-02, 00:55:06,VALID,917.25,VALID,0.0,VALID,97.738,VALID,-0.006,VALID,20.692,VALID,147.0,VALID,1.007,
2017-07-02, 00:56:06,VALID,917.229,VALID,0.0,VALID,97.843,VALID,-0.004,VALID,20.699,VALID,146.0,VALID,1.325,
2017-07-02, 00:57:06,VALID,917.213,VALID,0.0,VALID,97.952,VALID,-0.013,VALID,20.703,VALID,152.0,VALID,1.526,
2017-07-02, 00:58:06,VALID,917.189,VALID,0.0,VALID,98.026,VALID,-0.026,VALID,20.697,VALID,145.0,VALID,1.224,
2017-07-02, 00:59:06,VALID,917.173,VALID,0.0,VALID,98.059,VALID,-0.006,VALID,20.694,VALID,140.0,VALID,1.274,
2017-07-02, 01:00:06,VALID,917.153,VALID,0.0,VALID,98.117,VALID,-0.012,VALID,20.691,VALID,141.0,VALID,1.229,
2017-07-02, 01:01:06,VALID,917.148,VALID,0.0,VALID,98.14,VALID,-0.003,VALID,20.679,VALID,120.0,VALID,1.203,
2017-07-02, 01:02:06,VALID,917.133,VALID,0.0,VALID,98.15,VALID,-0.023,VALID,20.661,VALID,120.0,VALID,1.279,
2017-07-02, 01:03:06,VALID,917.107,VALID,0.0,VALID,98.172,VALID,-0.024,VALID,20.649,VALID,134.0,VALID,1.357,
2017-07-02, 01:04:06,VALID,917.08,VALID,0.0,VALID,98.185,VALID,-0.007,VALID,20.636,VALID,137.0,VALID,1.28,
2017-07-02, 01:05:06,VALID,917.053,VALID,0.0,VALID,98.179,VALID,-0.013,VALID,20.61,VALID,143.0,VALID,1.171,
2017-07-02, 01:06:06,VALID,917.018,VALID,0.0,VALID,98.189,VALID,-0.02,VALID,20.596,VALID,142.0,VALID,1.093,
2017-07-02, 01:07:06,VALID,916.985,VALID,0.0,VALID,98.213,VALID,-0.014,VALID,20.593,VALID,142.0,VALID,1.424,
2017-07-02, 01:08:06,VALID,916.959,VALID,0.0,VALID,98.216,VALID,-0.003,VALID,20.585,VALID,141.0,VALID,1.23,
2017-07-02, 01:09:06,VALID,916.933,VALID,0.0,VALID,98.206,VALID,-0.008,VALID,20.573,VALID,147.0,VALID,1.266,
2017-07-02, 01:10:06,VALID,916.911,VALID,0.0,VALID,98.261,VALID,0.003,VALID,20.603,VALID,157.0,VALID,1.078,
2017-07-02, 01:11:06,VALID,916.875,VALID,0.0,VALID,98.296,VALID,-0.01,VALID,20.626,VALID,157.0,VALID,1.021,
2017-07-02, 01:12:06,VALID,916.866,VALID,0.0,VALID,98.298,VALID,-0.012,VALID,20.649,VALID,161.0,VALID,0.826,
2017-07-02, 01:13:06,VALID,916.841,VALID,0.0,VALID,98.291,VALID,0.004,VALID,20.663,VALID,169.0,VALID,0.426,
2017-07-02, 01:14:06,VALID,916.827,VALID,0.0,VALID,98.294,VALID,0.014,VALID,20.655,VALID,167.0,VALID,0.858,
2017-07-02, 01:15:06,VALID,916.825,VALID,0.0,VALID,98.277,VALID,-0.004,VALID,20.653,VALID,160.0,VALID,1.121,
2017-07-02, 01:16:06,VALID,916.841,VALID,0.0,VALID,98.27,VALID,-0.006,VALID,20.656,VALID,162.0,VALID,0.861,
2017-07-02, 01:17:06,VALID,916.842,VALID,0.0,VALID,98.235,VALID,0.008,VALID,20.635,VALID,143.0,VALID,1.093,
2017-07-02, 01:18:06,VALID,916.846,VALID,0.0,VALID,98.204,VALID,0.003,VALID,20.608,VALID,145.0,VALID,1.351,
2017-07-02, 01:19:06,VALID,916.871,VALID,0.0,VALID,98.17,VALID,0.014,VALID,20.582,VALID,143.0,VALID,1.45,
2017-07-02, 01:20:06,VALID,916.862,VALID,0.0,VALID,98.169,VALID,0.0,VALID,20.564,VALID,135.0,VALID,1.592,
2017-07-02, 01:21:06,VALID,916.852,VALID,0.0,VALID,98.137,VALID,0.002,VALID,20.549,VALID,142.0,VALID,1.508,
2017-07-02, 01:22:06,VALID,916.847,VALID,0.0,VALID,98.096,VALID,-0.0,VALID,20.545,VALID,150.0,VALID,1.78,
2017-07-02, 01:23:06,VALID,916.814,VALID,0.0,VALID,98.045,VALID,-0.004,VALID,20.565,VALID,148.0,VALID,2.02,
2017-07-02, 01:24:06,VALID,916.801,VALID,0.0,VALID,97.951,VALID,0.025,VALID,20.583,VALID,142.0,VALID,1.678,
2017-07-02, 01:25:06,VALID,916.758,VALID,0.0,VALID,97.812,VALID,0.021,VALID,20.598,VALID,156.0,VALID,1.533,
2017-07-02, 01:26:06,VALID,916.716,VALID,0.0,VALID,97.735,VALID,0.017,VALID,20.618,VALID,159.0,VALID,1.309,
2017-07-02, 01:27:06,VALID,916.686,VALID,0.0,VALID,97.643,VALID,0.019,VALID,20.629,VALID,167.0,VALID,0.912,
2017-07-02, 01:28:06,VALID,916.642,VALID,0.0,VALID,97.529,VALID,0.016,VALID,20.64,VALID,171.0,VALID,0.967,
2017-07-02, 01:29:06,VALID,916.614,VALID,0.0,VALID,97.418,VALID,0.031,VALID,20.652,VALID,163.0,VALID,1.217,
2017-07-02, 01:30:06,VALID,916.592,VALID,0.0,VALID,97.297,VALID,0.038,VALID,20.651,VALID,163.0,VALID,1.275,
2017-07-02, 01:31:06,VALID,916.565,VALID,0.0,VALID,97.159,VALID,0.033,VALID,20.645,VALID,152.0,VALID,1.381,
2017-07-02, 01:32:06,VALID,916.549,VALID,0.0,VALID,97.115,VALID,0.039,VALID,20.634,VALID,156.0,VALID,1.361,
2017-07-02, 01:33:06,VALID,916.521,VALID,0.0,VALID,97.163,VALID,0.027,VALID,20.62,VALID,151.0,VALID,1.364,
2017-07-02, 01:34:06,VALID,916.497,VALID,0.0,VALID,97.126,VALID,0.024,VALID,20.6,VALID,155.0,VALID,1.142,
2017-07-02, 01:35:06,VALID,916.453,VALID,0.0,VALID,97.138,VALID,0.02,VALID,20.59,VALID,151.0,VALID,0.927,
2017-07-02, 01:36:06,VALID,916.427,VALID,0.0,VALID,96.995,VALID,0.036,VALID,20.561,VALID,144.0,VALID,0.869,
2017-07-02, 01:37:06,VALID,916.407,VALID,0.0,VALID,96.779,VALID,0.034,VALID,20.55,VALID,137.0,VALID,0.8,
2017-07-02, 01:38:06,VALID,916.385,VALID,0.0,VALID,96.622,VALID,0.011,VALID,20.54,VALID,136.0,VALID,0.739,
2017-07-02, 01:39:06,VALID,916.385,VALID,0.0,VALID,96.561,VALID,0.015,VALID,20.529,VALID,142.0,VALID,1.03,
2017-07-02, 01:40:06,VALID,916.355,VALID,0.0,VALID,96.393,VALID,0.017,VALID,20.505,VALID,141.0,VALID,1.177,
2017-07-02, 01:41:06,VALID,916.324,VALID,0.0,VALID,96.247,VALID,0.036,VALID,20.495,VALID,139.0,VALID,1.253,
2017-07-02, 01:42:06,VALID,916.301,VALID,0.0,VALID,96.081,VALID,0.026,VALID,20.5,VALID,140.0,VALID,1.21,
2017-07-02, 01:43:06,VALID,916.278,VALID,0.0,VALID,95.929,VALID,0.016,VALID,20.51,VALID,148.0,VALID,1.082,
2017-07-02, 01:44:06,VALID,916.259,VALID,0.0,VALID,96.121,VALID,0.015,VALID,20.549,VALID,149.0,VALID,1.284,
2017-07-02, 01:45:06,VALID,916.25,VALID,0.0,VALID,96.213,VALID,0.011,VALID,20.57,VALID,160.0,VALID,1.331,
2017-07-02, 01:46:06,VALID,916.245,VALID,0.0,VALID,96.442,VALID,-0.004,VALID,20.594,VALID,153.0,VALID,1.237,
2017-07-02, 01:47:06,VALID,916.263,VALID,0.0,VALID,96.37,VALID,-0.015,VALID,20.582,VALID,149.0,VALID,1.177,
2017-07-02, 01:48:06,VALID,916.255,VALID,0.0,VALID,96.465,VALID,0.0,VALID,20.569,VALID,142.0,VALID,1.226,
2017-07-02, 01:49:06,VALID,916.247,VALID,0.0,VALID,96.484,VALID,-0.012,VALID,20.551,VALID,146.0,VALID,1.398,
2017-07-02, 01:50:06,VALID,916.231,VALID,0.0,VALID,96.534,VALID,-0.024,VALID,20.548,VALID,145.0,VALID,1.078,
2017-07-02, 01:51:06,VALID,916.198,VALID,0.0,VALID,96.588,VALID,-0.013,VALID,20.539,VALID,145.0,VALID,1.118,
2017-07-02, 01:52:06,VALID,916.163,VALID,0.0,VALID,96.683,VALID,-0.01,VALID,20.522,VALID,148.0,VALID,1.17,
2017-07-02, 01:53:06,VALID,916.14,VALID,0.0,VALID,96.84,VALID,-0.007,VALID,20.515,VALID,150.0,VALID,1.009,
2017-07-02, 01:54:06,VALID,916.12,VALID,0.0,VALID,96.844,VALID,-0.001,VALID,20.487,VALID,150.0,VALID,1.09,
2017-07-02, 01:55:06,VALID,916.1,VALID,0.0,VALID,96.86,VALID,-0.005,VALID,20.456,VALID,148.0,VALID,1.2,
2017-07-02, 01:56:06,VALID,916.094,VALID,0.0,VALID,96.941,VALID,0.007,VALID,20.436,VALID,157.0,VALID,1.237,
2017-07-02, 01:57:06,VALID,916.111,VALID,0.0,VALID,97.004,VALID,0.021,VALID,20.413,VALID,155.0,VALID,1.306,
2017-07-02, 01:58:06,VALID,916.106,VALID,0.0,VALID,97.029,VALID,0.003,VALID,20.403,VALID,150.0,VALID,1.602,
2017-07-02, 01:59:06,VALID,916.108,VALID,0.0,VALID,97.028,VALID,0.021,VALID,20.372,VALID,147.0,VALID,1.713,
2017-07-02, 02:00:06,VALID,916.109,VALID,0.0,VALID,97.097,VALID,0.006,VALID,20.358,VALID,147.0,VALID,1.844,
2017-07-02, 02:01:06,VALID,916.117,VALID,0.0,VALID,97.16,VALID,0.017,VALID,20.339,VALID,144.0,VALID,2.101,
2017-07-02, 02:02:06,VALID,916.099,VALID,0.0,VALID,96.931,VALID,0.02,VALID,20.318,VALID,143.0,VALID,1.939,
2017-07-02, 02:03:06,VALID,916.103,VALID,0.0,VALID,96.809,VALID,0.008,VALID,20.342,VALID,150.0,VALID,2.18,
2017-07-02, 02:04:06,VALID,916.103,VALID,0.0,VALID,96.781,VALID,0.014,VALID,20.4,VALID,151.0,VALID,1.837,
2017-07-02, 02:05:06,VALID,916.07,VALID,0.0,VALID,96.608,VALID,0.005,VALID,20.431,VALID,157.0,VALID,1.496,
2017-07-02, 02:06:06,VALID,916.038,VALID,0.0,VALID,96.494,VALID,0.011,VALID,20.427,VALID,156.0,VALID,1.492,
2017-07-02, 02:07:06,VALID,916.007,VALID,0.0,VALID,96.611,VALID,0.012,VALID,20.44,VALID,164.0,VALID,1.28,
2017-07-02, 02:08:06,VALID,915.983,VALID,0.0,VALID,96.607,VALID,0.008,VALID,20.44,VALID,154.0,VALID,1.744,
2017-07-02, 02:09:06,VALID,915.964,VALID,0.0,VALID,96.629,VALID,0.009,VALID,20.452,VALID,151.0,VALID,1.891,
2017-07-02, 02:10:06,VALID,915.947,VALID,0.0,VALID,96.548,VALID,0.008,VALID,20.436,VALID,144.0,VALID,1.546,
2017-07-02, 02:11:06,VALID,915.927,VALID,0.0,VALID,96.381,VALID,0.013,VALID,20.393,VALID,145.0,VALID,1.698,
2017-07-02, 02:12:06,VALID,915.923,VALID,0.0,VALID,96.415,VALID,0.001,VALID,20.377,VALID,139.0,VALID,1.702,
2017-07-02, 02:13:06,VALID,915.921,VALID,0.0,VALID,96.366,VALID,0.008,VALID,20.384,VALID,141.0,VALID,1.79,
2017-07-02, 02:14:06,VALID,915.923,VALID,0.0,VALID,96.144,VALID,0.012,VALID,20.392,VALID,140.0,VALID,1.901,
2017-07-02, 02:15:06,VALID,915.946,VALID,0.0,VALID,95.805,VALID,0.021,VALID,20.399,VALID,148.0,VALID,1.923,
2017-07-02, 02:16:06,VALID,915.969,VALID,0.0,VALID,95.689,VALID,0.015,VALID,20.384,VALID,150.0,VALID,1.861,
2017-07-02, 02:17:06,VALID,915.973,VALID,0.0,VALID,95.908,VALID,0.005,VALID,20.395,VALID,152.0,VALID,2.063,
2017-07-02, 02:18:06,VALID,915.981,VALID,0.0,VALID,95.916,VALID,0.014,VALID,20.423,VALID,147.0,VALID,1.57,
2017-07-02, 02:19:06,VALID,915.99,VALID,0.0,VALID,95.747,VALID,0.025,VALID,20.422,VALID,155.0,VALID,1.304,
2017-07-02, 02:20:06,VALID,915.972,VALID,0.0,VALID,95.84,VALID,0.025,VALID,20.42,VALID,151.0,VALID,1.373,
2017-07-02, 02:21:06,VALID,915.952,VALID,0.0,VALID,96.0,VALID,0.014,VALID,20.418,VALID,155.0,VALID,1.531,
2017-07-02, 02:22:06,VALID,915.938,VALID,0.0,VALID,95.997,VALID,0.021,VALID,20.391,VALID,146.0,VALID,1.686,
2017-07-02, 02:23:06,VALID,915.926,VALID,0.0,VALID,96.15,VALID,0.026,VALID,20.401,VALID,149.0,VALID,1.831,
2017-07-02, 02:24:06,VALID,915.938,VALID,0.0,VALID,95.948,VALID,0.003,VALID,20.408,VALID,153.0,VALID,1.755,
2017-07-02, 02:25:06,VALID,915.946,VALID,0.0,VALID,95.844,VALID,0.011,VALID,20.412,VALID,146.0,VALID,1.897,
2017-07-02, 02:26:06,VALID,915.966,VALID,0.0,VALID,95.642,VALID,0.011,VALID,20.393,VALID,138.0,VALID,1.811,
2017-07-02, 02:27:06,VALID,915.981,VALID,0.0,VALID,95.517,VALID,0.013,VALID,20.365,VALID,136.0,VALID,1.82,
2017-07-02, 02:28:06,VALID,915.99,VALID,0.0,VALID,95.469,VALID,0.002,VALID,20.345,VALID,133.0,VALID,1.671,
2017-07-02, 02:29:06,VALID,916.006,VALID,0.0,VALID,95.35,VALID,0.009,VALID,20.317,VALID,125.0,VALID,1.503,
2017-07-02, 02:30:06,VALID,916.024,VALID,0.0,VALID,95.423,VALID,0.003,VALID,20.3,VALID,122.0,VALID,1.652,
2017-07-02, 02:31:06,VALID,916.039,VALID,0.0,VALID,95.542,VALID,-0.012,VALID,20.303,VALID,115.0,VALID,1.66,
2017-07-02, 02:32:06,VALID,916.054,VALID,0.0,VALID,95.412,VALID,-0.001,VALID,20.292,VALID,117.0,VALID,1.478,
2017-07-02, 02:33:06,VALID,916.067,VALID,0.0,VALID,95.526,VALID,0.003,VALID,20.285,VALID,122.0,VALID,1.535,
2017-07-02, 02:34:06,VALID,916.075,VALID,0.0,VALID,95.718,VALID,0.013,VALID,20.314,VALID,119.0,VALID,1.821,
2017-07-02, 02:35:06,VALID,916.078,VALID,0.0,VALID,95.737,VALID,0.005,VALID,20.344,VALID,110.0,VALID,1.527,
2017-07-02, 02:36:06,VALID,916.088,VALID,0.0,VALID,95.623,VALID,-0.01,VALID,20.32,VALID,109.0,VALID,1.411,
2017-07-02, 02:37:06,VALID,916.085,VALID,0.0,VALID,95.71,VALID,0.004,VALID,20.279,VALID,102.0,VALID,1.094,
2017-07-02, 02:38:06,VALID,916.089,VALID,0.0,VALID,95.657,VALID,-0.015,VALID,20.23,VALID,94.0,VALID,0.925,
2017-07-02, 02:39:06,VALID,916.081,VALID,0.0,VALID,95.806,VALID,0.021,VALID,20.186,VALID,80.0,VALID,0.809,
2017-07-02, 02:40:06,VALID,916.079,VALID,0.0,VALID,95.87,VALID,0.02,VALID,20.136,VALID,61.0,VALID,0.358,
2017-07-02, 02:41:06,VALID,916.081,VALID,0.0,VALID,96.053,VALID,0.012,VALID,20.104,VALID,68.0,VALID,0.342,
2017-07-02, 02:42:06,VALID,916.078,VALID,0.0,VALID,96.235,VALID,0.016,VALID,20.087,VALID,114.0,VALID,0.406,
2017-07-02, 02:43:06,VALID,916.07,VALID,0.0,VALID,96.33,VALID,0.016,VALID,20.078,VALID,130.0,VALID,0.609,
2017-07-02, 02:44:06,VALID,916.058,VALID,0.0,VALID,96.449,VALID,0.027,VALID,20.057,VALID,140.0,VALID,0.745,
2017-07-02, 02:45:06,VALID,916.047,VALID,0.0,VALID,96.618,VALID,0.031,VALID,20.053,VALID,149.0,VALID,1.03,
2017-07-02, 02:46:06,VALID,916.031,VALID,0.0,VALID,96.823,VALID,0.025,VALID,20.063,VALID,143.0,VALID,1.118,
2017-07-02, 02:47:06,VALID,916.024,VALID,0.0,VALID,96.993,VALID,0.009,VALID,20.081,VALID,140.0,VALID,1.15,
2017-07-02, 02:48:06,VALID,916.018,VALID,0.0,VALID,96.872,VALID,0.025,VALID,20.065,VALID,148.0,VALID,1.44,
2017-07-02, 02:49:06,VALID,916.014,VALID,0.0,VALID,96.991,VALID,0.028,VALID,20.076,VALID,150.0,VALID,1.665,
2017-07-02, 02:50:06,VALID,916.006,VALID,0.0,VALID,97.051,VALID,0.03,VALID,20.087,VALID,139.0,VALID,1.702,
2017-07-02, 02:51:06,VALID,915.989,VALID,0.0,VALID,96.957,VALID,0.035,VALID,20.065,VALID,138.0,VALID,1.15,
2017-07-02, 02:52:06,VALID,916.007,VALID,0.0,VALID,96.89,VALID,0.023,VALID,20.037,VALID,129.0,VALID,1.576,
2017-07-02, 02:53:06,VALID,916.004,VALID,0.0,VALID,96.804,VALID,0.019,VALID,19.995,VALID,126.0,VALID,1.288,
2017-07-02, 02:54:06,VALID,916.002,VALID,0.0,VALID,96.741,VALID,0.038,VALID,19.959,VALID,125.0,VALID,1.536,
2017-07-02, 02:55:06,VALID,915.996,VALID,0.0,VALID,96.837,VALID,0.043,VALID,19.946,VALID,135.0,VALID,1.001,
2017-07-02, 02:56:06,VALID,915.968,VALID,0.0,VALID,96.792,VALID,0.029,VALID,19.921,VALID,136.0,VALID,1.136,
2017-07-02, 02:57:06,VALID,915.944,VALID,0.0,VALID,96.895,VALID,0.027,VALID,19.904,VALID,138.0,VALID,1.024,
2017-07-02, 02:58:06,VALID,915.938,VALID,0.0,VALID,97.017,VALID,0.03,VALID,19.9,VALID,142.0,VALID,0.871,
2017-07-02, 02:59:06,VALID,915.928,VALID,0.0,VALID,97.062,VALID,0.016,VALID,19.887,VALID,146.0,VALID,0.85,
2017-07-02, 03:00:06,VALID,915.932,VALID,0.0,VALID,97.086,VALID,0.032,VALID,19.872,VALID,142.0,VALID,0.561,
2017-07-02, 03:01:06,VALID,915.934,VALID,0.0,VALID,97.188,VALID,0.038,VALID,19.889,VALID,143.0,VALID,0.744,
2017-07-02, 03:02:06,VALID,915.938,VALID,0.0,VALID,97.363,VALID,0.037,VALID,19.918,VALID,145.0,VALID,0.527,
2017-07-02, 03:03:06,VALID,915.955,VALID,0.0,VALID,97.309,VALID,0.034,VALID,19.914,VALID,157.0,VALID,0.336,
2017-07-02, 03:04:06,VALID,915.952,VALID,0.0,VALID,97.261,VALID,0.017,VALID,19.915,VALID,157.0,VALID,0.251,
2017-07-02, 03:05:06,VALID,915.963,VALID,0.0,VALID,97.291,VALID,0.033,VALID,19.932,VALID,150.0,VALID,0.174,
2017-07-02, 03:06:06,VALID,915.946,VALID,0.0,VALID,97.224,VALID,0.031,VALID,19.942,VALID,158.0,VALID,0.403,
2017-07-02, 03:07:06,VALID,915.942,VALID,0.0,VALID,97.221,VALID,0.028,VALID,19.956,VALID,161.0,VALID,0.514,
2017-07-02, 03:08:06,VALID,915.93,VALID,0.0,VALID,97.112,VALID,0.019,VALID,19.958,VALID,152.0,VALID,0.606,
2017-07-02, 03:09:06,VALID,915.924,VALID,0.0,VALID,97.14,VALID,0.01,VALID,19.976,VALID,140.0,VALID,0.743,
2017-07-02, 03:10:06,VALID,915.928,VALID,0.0,VALID,96.977,VALID,-0.006,VALID,19.943,VALID,135.0,VALID,0.827,
2017-07-02, 03:11:06,VALID,915.916,VALID,0.0,VALID,96.885,VALID,-0.007,VALID,19.903,VALID,129.0,VALID,0.937,
2017-07-02, 03:12:06,VALID,915.908,VALID,0.0,VALID,96.888,VALID,0.005,VALID,19.865,VALID,120.0,VALID,0.773,
2017-07-02, 03:13:06,VALID,915.9,VALID,0.0,VALID,96.726,VALID,-0.021,VALID,19.82,VALID,114.0,VALID,0.73,
2017-07-02, 03:14:06,VALID,915.885,VALID,0.0,VALID,96.971,VALID,-0.022,VALID,19.831,VALID,113.0,VALID,0.554,
2017-07-02, 03:15:06,VALID,915.882,VALID,0.0,VALID,96.964,VALID,-0.025,VALID,19.821,VALID,116.0,VALID,0.533,
2017-07-02, 03:16:06,VALID,915.869,VALID,0.0,VALID,96.914,VALID,0.003,VALID,19.793,VALID,117.0,VALID,0.421,
2017-07-02, 03:17:06,VALID,915.875,VALID,0.0,VALID,96.922,VALID,-0.01,VALID,19.779,VALID,116.0,VALID,0.265,
2017-07-02, 03:18:06,VALID,915.858,VALID,0.0,VALID,96.946,VALID,-0.005,VALID,19.773,VALID,115.0,VALID,0.254,
2017-07-02, 03:19:06,VALID,915.865,VALID,0.0,VALID,96.978,VALID,-0.013,VALID,19.763,VALID,115.0,VALID,0.275,
2017-07-02, 03:20:06,VALID,915.86,VALID,0.0,VALID,96.862,VALID,-0.018,VALID,19.72,VALID,115.0,VALID,0.045,
2017-07-02, 03:21:06,VALID,915.859,VALID,0.0,VALID,96.733,VALID,-0.023,VALID,19.687,VALID,115.0,VALID,0.093,
2017-07-02, 03:22:06,VALID,915.858,VALID,0.0,VALID,96.822,VALID,-0.018,VALID,19.669,VALID,114.0,VALID,0.223,
2017-07-02, 03:23:06,VALID,915.855,VALID,0.0,VALID,97.003,VALID,-0.016,VALID,19.689,VALID,114.0,VALID,0.454,
2017-07-02, 03:24:06,VALID,915.84,VALID,0.0,VALID,97.137,VALID,0.017,VALID,19.698,VALID,115.0,VALID,0.507,
2017-07-02, 03:25:06,VALID,915.838,VALID,0.0,VALID,97.17,VALID,0.009,VALID,19.699,VALID,118.0,VALID,0.625,
2017-07-02, 03:26:06,VALID,915.82,VALID,0.0,VALID,97.255,VALID,0.01,VALID,19.721,VALID,123.0,VALID,0.788,
2017-07-02, 03:27:06,VALID,915.819,VALID,0.0,VALID,97.263,VALID,0.015,VALID,19.724,VALID,107.0,VALID,0.471,
2017-07-02, 03:28:06,VALID,915.832,VALID,0.0,VALID,96.939,VALID,0.024,VALID,19.683,VALID,103.0,VALID,0.534,
2017-07-02, 03:29:06,VALID,915.838,VALID,0.0,VALID,96.991,VALID,0.026,VALID,19.685,VALID,103.0,VALID,0.659,
2017-07-02, 03:30:06,VALID,915.853,VALID,0.0,VALID,97.191,VALID,0.009,VALID,19.701,VALID,98.0,VALID,0.624,
2017-07-02, 03:31:06,VALID,915.876,VALID,0.0,VALID,96.605,VALID,0.034,VALID,19.601,VALID,77.0,VALID,0.479,
2017-07-02, 03:32:06,VALID,915.881,VALID,0.0,VALID,96.444,VALID,0.012,VALID,19.55,VALID,69.0,VALID,0.478,
2017-07-02, 03:33:06,VALID,915.885,VALID,0.0,VALID,96.825,VALID,0.018,VALID,19.542,VALID,73.0,VALID,0.369,
2017-07-02, 03:34:06,VALID,915.894,VALID,0.0,VALID,96.127,VALID,0.012,VALID,19.409,VALID,70.0,VALID,0.201,
2017-07-02, 03:35:06,VALID,915.891,VALID,0.0,VALID,95.817,VALID,0.003,VALID,19.322,VALID,69.0,VALID,0.373,
2017-07-02, 03:36:06,VALID,915.892,VALID,0.0,VALID,96.492,VALID,0.02,VALID,19.332,VALID,70.0,VALID,0.693,
2017-07-02, 03:37:06,VALID,915.881,VALID,0.0,VALID,96.852,VALID,0.024,VALID,19.33,VALID,71.0,VALID,0.8,
2017-07-02, 03:38:06,VALID,915.868,VALID,0.0,VALID,97.339,VALID,0.032,VALID,19.381,VALID,75.0,VALID,0.749,
2017-07-02, 03:39:06,VALID,915.862,VALID,0.0,VALID,97.504,VALID,0.019,VALID,19.405,VALID,80.0,VALID,0.562,